Regional Weather Roundup
Issued by NWS Sterling, VA

Home | Current Version | Previous Version | Text Only | Print | Product List | Glossary On
Versions: 1 2 3 4 5 6 7 8 9 10 11 12 13 14 15 16 17 18 19 20 21 22 23 24 25 26 27 28 29 30 31 32 33 34 35 36 37 38 39 40 41 42 43 44 45 46 47 48 49 50
000
ASUS41 KLWX 281810
RWRLWX

REGIONAL WEATHER ROUNDUP
NATIONAL WEATHER SERVICE BALTIMORE MD/WASHINGTON DC
200 PM EDT TUE APR 28 2015

Note: "FAIR" indicates few or no clouds below 12,000 feet
with no significant weather and/or obstructions to visibility.
 TC=TEMPERATURE CELSIUS

 * =Non NWS site. Station does not report precipitation (e.g. rain,
    snow, etc.), thunder, or fog.

DCZ001-MDZ009-015-VAZ040>042-051-053>054-281900-
WASHINGTON METRO

CITY           SKY/WX    TMP DP  RH WIND       PRES   REMARKS
WASHINGTON NAT PTSUNNY   70  41  34 N16G25    29.89F
DULLES         MOSUNNY   65  39  38 NW17      29.90F
ANDREWS AFB    MOSUNNY   66  43  42 N10       29.87F
FT BELVOIR     PTSUNNY   67  40  37 NW12G22   29.89F
QUANTICO       MOSUNNY   68  39  34 N16G22    29.90F
COLLEGE PARK*  PTSUNNY   66  39  37 N12G20    29.88F
LEESBURG*      PTSUNNY   66  43  42 N14G25    29.91F
MANASSAS*      MOSUNNY   66  39  37 N9G16     29.91F
GAITHERSBURG*  PTSUNNY   64  39  39 NW13      29.93F

$$

MDZ006>007-011-014-281900-
BALTIMORE METRO

CITY           SKY/WX    TMP DP  RH WIND       PRES   REMARKS
BWI AIRPORT    MOSUNNY   66  39  37 N14G22    29.87F
MD SCIENCE CTR   N/A     65  38  36 MISG      29.88F
MARTIN STATE   PTSUNNY   64  43  45 NW15G21   29.89S
ANNAPOLIS      MOSUNNY   63  38  39 NW8       29.86F
FORT MEADE*    MOSUNNY   64  37  36 N13G20    29.90F

$$

MDZ012-015-019>023-281900-
MARYLAND EASTERN SHORE

CITY           SKY/WX    TMP DP  RH WIND       PRES   REMARKS
OCEAN CITY     MOSUNNY   65  39  38 N12G18    29.83F
SALISBURY      MOSUNNY   66  39  37 N10G22    29.84F
BAY BRIDGE AP*   N/A    N/A N/A N/A N12       29.88F
CAMBRIDGE*     SUNNY     63  39  42 NW14G21   29.86F
EASTON*        MOSUNNY   64  45  48 N12G23    29.90F

$$

MDZ017>025-281900-
SOUTHERN MARYLAND

CITY           SKY/WX    TMP DP  RH WIND       PRES   REMARKS
PATUXENT RIVER MOSUNNY   64  42  44 NE10      29.87F
ST INIGOES     MOSUNNY   65  41  41 VRB3      29.87F
LEONARDTOWN*   PTSUNNY   63  37  39 N6        29.89S

$$

MDZ003>005-281900-
NORTH CENTRAL MARYLAND

CITY           SKY/WX    TMP DP  RH WIND       PRES   REMARKS
FREDERICK*     PTSUNNY   66  34  30 N9G17     29.92F
HAGERSTOWN APT MOSUNNY   66  39  37 N10G20    29.90F
WESTMINSTER*   CLOUDY    63  39  42 NW10G16     N/A

$$

MDZ501>502-281900-
WESTERN MARYLAND

CITY           SKY/WX    TMP DP  RH WIND       PRES   REMARKS
OAKLAND*       PTSUNNY   50  37  62 NW8       29.99S
CUMBERLAND*    MOSUNNY   64  36  34 NW14G21   29.99F

$$

VAZ025>031-281900-
SHENANDOAH VALLEY

CITY           SKY/WX    TMP DP  RH WIND       PRES   REMARKS
WINCHESTER*    PTSUNNY   64  32  29 NW7       29.92F
FRONT ROYAL*   CLOUDY    64  39  39 NW8       29.92S
LURAY*         CLOUDY    64  41  42 NE3       29.94S
NEW MARKET*    FAIR      62  39  43 W3        29.94F
STAUNTON*      MOSUNNY   63  38  39 NW5       29.97F
WAYNESBORO*    FAIR      60  40  48 NW10      29.95F

$$

WVZ021-048>050-054>055-281900-
EASTERN WEST VIRGINIA PANHANDLE

CITY           SKY/WX    TMP DP  RH WIND       PRES   REMARKS
MARTINSBURG    PTSUNNY   66  38  35 NW10G20   29.91F
PETERSBURG*    SUNNY     60  37  41 W8        29.99F

$$

VAZ036>039-050-281900-
CENTRAL FOOTHILLS

CITY           SKY/WX    TMP DP  RH WIND       PRES   REMARKS
CHARLOTTESVILL MOSUNNY   66  38  35 NW10G17   29.92F
CULPEPER*      MOSUNNY   66  39  37 NW9G18    29.92F
ORANGE*        MOSUNNY   64  41  42 NW13G18   29.93F
GORDONSVILLE*  MOCLDY    64  38  37 N5G17     29.92S
WARRENTON*     FAIR      67  43  42 NW10G17   29.91F

$$

VAZ055>057-281900-
NORTH AND CENTRAL PIEDMONT

CITY           SKY/WX    TMP DP  RH WIND       PRES   REMARKS
FREDERICKSBRG* MOSUNNY   67  40  37 NW10      29.90S
STAFFORD*      MOSUNNY   66  39  37 NW13G20   29.94F

$$

NCZ024-NYZ072-PAZ021-071-VAZ022-071-281900-
OTHER REGIONAL OBSERVATIONS

CITY           SKY/WX    TMP DP  RH WIND       PRES   REMARKS
NEW YORK CITY  SUNNY     70  34  26 NE12      29.78F
PHILADELPHIA   MOSUNNY   66  36  32 NW21      29.81F
PITTSBURGH     MOSUNNY   59  35  40 NW12G21   30.01F
ROANOKE        SUNNY     63  38  39 E9        29.96F
RICHMOND       MOSUNNY   68  40  35 VRB7      29.91S
RALEIGH        MOSUNNY   64  38  38 VRB3      29.95F

$$

ANZ530>537-281900-
MARINE OBSERVATIONS

STATION/POSITION TIME  TEMP    WIND        PRES
                       AIR SEA DIR/SP/G
                 (UTC) (F)     (DEG/KT/KT) (MB)
THOMAS PT LIGHT  1800   58 54   40/ 13/ 14 1012.0F
BALT KEY BRIDGE  1700   61     340/ 13/ 17 1011.7F
COVE POINT       1700   55      40/  8/  9 1012.9F
LEWISETTA        1700   61 58              1011.8F
SOLOMONS ISLAND  1700      57                N/A
PINEY POINT      1700          320/ 12/ 14   N/A

$$



USA.gov is the U.S. government's official web portal to all federal, state and local government web resources and services.